When you browse on this site, cookies collect data to enhance your experience and personalize the content and advertising you see.
Visit our Privacy Policy to learn more. By continuing to use the site, you agree to this use of cookies and data.
  • In Hungary
  • List of Countries
  • For 7 days
  • Water Temperature
  • Satellite Maps
  • Weather Map
  • News
  • Weather Widgets
  • user-avatar
    Login

    Hourly Weather Brzezowa

    Today, 20 May, Monday

    Time Temperature Precipitation Wind Pressure Humidity
    00:00 +13°C° 0 mm 2 mps 723 mmHg 91%
    01:00 +13°C° 0 mm 1 mps 722 mmHg 91%
    02:00 +13°C° 0 mm 1 mps 722 mmHg 90%
    03:00 +13°C° 0 mm 1 mps 722 mmHg 90%
    04:00 +13°C° 0 mm 1 mps 721 mmHg 89%
    05:00 +15°C° 0 mm 2 mps 722 mmHg 84%
    06:00 +16°C° 0 mm 2 mps 722 mmHg 79%
    07:00 +19°C° 0 mm 3 mps 722 mmHg 72%
    08:00 +20°C° 0 mm 3 mps 723 mmHg 65%
    09:00 +21°C° 0 mm 3 mps 723 mmHg 58%
    10:00 +22°C° 0 mm 4 mps 723 mmHg 52%
    11:00 +23°C° 0 mm 4 mps 723 mmHg 50%
    12:00 +23°C° 0 mm 4 mps 723 mmHg 48%
    13:00 +22°C° 0 mm 3 mps 724 mmHg 49%
    14:00 +23°C° 0 mm 2 mps 724 mmHg 50%
    15:00 +23°C° 0 mm 2 mps 724 mmHg 51%
    16:00 +23°C° 0 mm 2 mps 724 mmHg 52%
    17:00 +20°C° 0.1 mm 2 mps 724 mmHg 60%
    18:00 +18°C° 0.1 mm 2 mps 724 mmHg 68%
    19:00 +17°C° 0.1 mm 2 mps 724 mmHg 76%
    20:00 +15°C° 0 mm 2 mps 724 mmHg 79%
    21:00 +14°C° 0 mm 2 mps 724 mmHg 82%
    22:00 +13°C° 0 mm 2 mps 724 mmHg 85%
    23:00 +13°C° 0 mm 2 mps 724 mmHg 85%

    Tomorrow, 21 May, Tuesday

    Time Temperature Precipitation Wind Pressure Humidity
    00:00 +12°C° 0 mm 2 mps 724 mmHg 86%
    01:00 +12°C° 0 mm 2 mps 724 mmHg 87%
    02:00 +10°C° 0 mm 2 mps 723 mmHg 87%
    03:00 +11°C° 0 mm 1 mps 723 mmHg 87%
    04:00 +11°C° 0 mm 1 mps 723 mmHg 88%
    05:00 +12°C° 0 mm 1 mps 723 mmHg 82%
    06:00 +14°C° 0 mm 1 mps 723 mmHg 77%
    07:00 +16°C° 0 mm 1 mps 723 mmHg 72%
    08:00 +18°C° 0.1 mm 1 mps 723 mmHg 67%
    09:00 +20°C° 0.1 mm 1 mps 723 mmHg 63%
    10:00 +21°C° 0.1 mm 1 mps 723 mmHg 58%
    11:00 +20°C° 0.7 mm 1 mps 723 mmHg 64%
    12:00 +20°C° 0.7 mm 1 mps 723 mmHg 69%
    13:00 +19°C° 0.7 mm 1 mps 723 mmHg 74%
    14:00 +17°C° 0.8 mm 2 mps 722 mmHg 78%
    15:00 +17°C° 0.8 mm 2 mps 722 mmHg 82%
    16:00 +17°C° 0.8 mm 2 mps 722 mmHg 85%
    17:00 +16°C° 1.3 mm 2 mps 722 mmHg 87%
    18:00 +14°C° 1.3 mm 3 mps 722 mmHg 89%
    19:00 +14°C° 1.3 mm 3 mps 722 mmHg 91%
    20:00 +13°C° 0.5 mm 4 mps 722 mmHg 91%
    21:00 +13°C° 0.5 mm 4 mps 722 mmHg 91%
    22:00 +13°C° 0.5 mm 5 mps 722 mmHg 91%
    23:00 +13°C° 0.9 mm 5 mps 722 mmHg 92%

    Day after tomorrow, 22 May, Wednesday

    Time Temperature Precipitation Wind Pressure Humidity
    00:00 +13°C° 0.9 mm 5 mps 722 mmHg 92%
    01:00 +13°C° 0.9 mm 5 mps 722 mmHg 92%
    02:00 +12°C° 0.3 mm 5 mps 722 mmHg 92%
    03:00 +12°C° 0.3 mm 5 mps 722 mmHg 91%
    04:00 +12°C° 0.3 mm 5 mps 722 mmHg 91%
    05:00 +13°C° 0.3 mm 5 mps 722 mmHg 90%
    06:00 +13°C° 0.3 mm 5 mps 723 mmHg 90%
    07:00 +13°C° 0.3 mm 6 mps 723 mmHg 89%
    08:00 +13°C° 0.3 mm 5 mps 723 mmHg 90%
    09:00 +13°C° 0.3 mm 4 mps 723 mmHg 90%
    10:00 +13°C° 0.3 mm 4 mps 724 mmHg 91%
    11:00 +14°C° 0.8 mm 4 mps 724 mmHg 91%
    12:00 +14°C° 0.8 mm 4 mps 724 mmHg 91%
    13:00 +14°C° 0.8 mm 3 mps 724 mmHg 91%
    14:00 +14°C° 0.6 mm 4 mps 724 mmHg 90%
    15:00 +15°C° 0.6 mm 4 mps 724 mmHg 90%
    16:00 +15°C° 0.6 mm 4 mps 724 mmHg 89%
    17:00 +14°C° 0.8 mm 5 mps 724 mmHg 91%
    18:00 +14°C° 0.8 mm 5 mps 724 mmHg 92%
    19:00 +14°C° 0.8 mm 6 mps 725 mmHg 93%
    20:00 +14°C° 1.3 mm 6 mps 725 mmHg 93%
    21:00 +13°C° 1.3 mm 6 mps 725 mmHg 94%
    22:00 +12°C° 1.3 mm 7 mps 726 mmHg 94%
    23:00 +13°C° 1 mm 6 mps 726 mmHg 95%

    23 May, Thursday

    Time Temperature Precipitation Wind Pressure Humidity
    00:00 +13°C° 1 mm 6 mps 726 mmHg 95%
    01:00 +13°C° 1 mm 5 mps 726 mmHg 96%
    02:00 +13°C° 1 mm 5 mps 727 mmHg 96%
    03:00 +13°C° 1 mm 5 mps 727 mmHg 96%
    04:00 +13°C° 1 mm 4 mps 727 mmHg 96%
    05:00 +12°C° 1.5 mm 5 mps 727 mmHg 96%
    06:00 +12°C° 1.5 mm 5 mps 728 mmHg 96%
    07:00 +11°C° 1.5 mm 6 mps 728 mmHg 96%
    08:00 +10°C° 2 mm 5 mps 729 mmHg 95%
    09:00 +10°C° 2 mm 5 mps 729 mmHg 95%
    10:00 +9°C° 2 mm 5 mps 729 mmHg 95%
    11:00 +9°C° 0.6 mm 5 mps 730 mmHg 94%
    12:00 +9°C° 0.6 mm 5 mps 730 mmHg 94%
    13:00 +9°C° 0.6 mm 5 mps 730 mmHg 94%
    14:00 +9°C° 0.1 mm 5 mps 731 mmHg 93%
    15:00 +9°C° 0.1 mm 5 mps 731 mmHg 92%
    16:00 +10°C° 0.1 mm 4 mps 731 mmHg 91%
    17:00 +10°C° 0 mm 4 mps 731 mmHg 91%
    18:00 +10°C° 0 mm 3 mps 731 mmHg 90%
    19:00 +10°C° 0 mm 2 mps 731 mmHg 90%
    20:00 +9°C° 0 mm 2 mps 731 mmHg 89%
    21:00 +9°C° 0 mm 2 mps 731 mmHg 89%
    22:00 +8°C° 0 mm 2 mps 731 mmHg 89%
    23:00 +8°C° 0 mm 2 mps 731 mmHg 89%

    24 May, Friday

    Time Temperature Precipitation Wind Pressure Humidity
    00:00 +7°C° 0 mm 2 mps 731 mmHg 89%
    01:00 +7°C° 0 mm 2 mps 731 mmHg 88%
    02:00 +7°C° 0 mm 2 mps 731 mmHg 88%
    03:00 +7°C° 0 mm 2 mps 731 mmHg 89%
    04:00 +7°C° 0 mm 2 mps 730 mmHg 89%
    05:00 +9°C° 0 mm 2 mps 730 mmHg 85%
    06:00 +10°C° 0 mm 2 mps 730 mmHg 82%
    07:00 +12°C° 0 mm 2 mps 730 mmHg 78%
    08:00 +14°C° 0 mm 2 mps 730 mmHg 70%
    09:00 +14°C° 0 mm 3 mps 730 mmHg 63%
    10:00 +16°C° 0 mm 3 mps 730 mmHg 55%
    11:00 +17°C° 0 mm 3 mps 730 mmHg 52%
    12:00 +17°C° 0 mm 3 mps 729 mmHg 50%
    13:00 +18°C° 0 mm 3 mps 729 mmHg 47%
    14:00 +18°C° 0 mm 2 mps 729 mmHg 48%
    15:00 +18°C° 0 mm 2 mps 728 mmHg 49%
    16:00 +18°C° 0 mm 2 mps 728 mmHg 50%
    17:00 +16°C° 0 mm 2 mps 728 mmHg 58%
    18:00 +15°C° 0 mm 1 mps 727 mmHg 65%
    19:00 +13°C° 0 mm 1 mps 727 mmHg 72%
    20:00 +12°C° 0 mm 1 mps 727 mmHg 74%
    21:00 +11°C° 0 mm 1 mps 727 mmHg 76%
    22:00 +10°C° 0 mm 1 mps 728 mmHg 78%
    23:00 +9°C° 0 mm 1 mps 727 mmHg 79%

    25 May, Saturday

    Time Temperature Precipitation Wind Pressure Humidity
    00:00 +9°C° 0 mm 1 mps 727 mmHg 81%
    01:00 +8°C° 0 mm 1 mps 727 mmHg 82%
    02:00 +8°C° 0 mm 1 mps 727 mmHg 83%
    03:00 +8°C° 0 mm 1 mps 727 mmHg 83%
    04:00 +8°C° 0 mm 1 mps 727 mmHg 83%
    05:00 +10°C° 0 mm 1 mps 727 mmHg 76%
    06:00 +12°C° 0 mm 1 mps 727 mmHg 70%
    07:00 +15°C° 0 mm 1 mps 728 mmHg 63%
    08:00 +15°C° 0 mm 0 mps 728 mmHg 58%
    09:00 +17°C° 0 mm 0 mps 728 mmHg 52%
    10:00 +19°C° 0 mm 0 mps 728 mmHg 47%
    11:00 +22°C° 0 mm 1 mps 727 mmHg 46%
    12:00 +22°C° 0 mm 1 mps 727 mmHg 44%
    13:00 +22°C° 0 mm 1 mps 727 mmHg 43%
    14:00 +22°C° 0 mm 1 mps 727 mmHg 45%
    15:00 +22°C° 0 mm 1 mps 727 mmHg 46%
    16:00 +22°C° 0 mm 1 mps 727 mmHg 48%
    17:00 +21°C° 0 mm 1 mps 727 mmHg 55%
    18:00 +19°C° 0 mm 1 mps 726 mmHg 62%
    19:00 +16°C° 0 mm 1 mps 726 mmHg 69%
    20:00 +16°C° 0 mm 1 mps 727 mmHg 73%
    21:00 +15°C° 0 mm 1 mps 727 mmHg 77%
    22:00 +14°C° 0 mm 2 mps 727 mmHg 82%
    23:00 +13°C° 0 mm 2 mps 727 mmHg 86%
    Show more